2023/07/17 00:00:00, 0.3,21.3
2023/07/17 00:10:00, 0.3,21.6
2023/07/17 00:20:00, 0.3,20.6
2023/07/17 00:30:00, 0.4,21.1
2023/07/17 00:40:00, 0.3,21.0
2023/07/17 00:50:00, 0.3,21.5
2023/07/17 01:00:00, 0.3,21.0
2023/07/17 01:10:00, 0.3,21.5
2023/07/17 01:20:00, 0.3,21.5
2023/07/17 01:30:00, 0.4,21.6
2023/07/17 01:40:00, 0.3,21.9
2023/07/17 01:50:00, 0.4,21.5
2023/07/17 02:00:00, 0.4,21.5
2023/07/17 02:10:00, 0.4,20.5
2023/07/17 02:20:00, 0.4,20.9
2023/07/17 02:30:00, 0.4,21.8
2023/07/17 02:40:00, 0.3,21.7
2023/07/17 02:50:00, 0.3,21.5
2023/07/17 03:00:00, 0.4,22.0
2023/07/17 03:10:00, 0.3,22.1
2023/07/17 03:20:00, 0.3,22.0
2023/07/17 03:30:00, 0.4,21.8
2023/07/17 03:40:00, 0.4,21.7
2023/07/17 03:50:00, 0.4,21.4
2023/07/17 04:00:00, 0.4,21.2
2023/07/17 04:10:00, 0.4,21.5
2023/07/17 04:20:00, 0.4,21.5
2023/07/17 04:30:00, 0.4,21.2
2023/07/17 04:40:00, 0.4,21.7
2023/07/17 04:50:00, 0.4,21.7
2023/07/17 05:00:00, 0.3,21.9
2023/07/17 05:10:00, 0.3,22.3
2023/07/17 05:20:00, 0.3,21.3
2023/07/17 05:30:00, 0.4,21.3
2023/07/17 05:40:00, 0.4,21.5
2023/07/17 05:50:00, 0.3,21.0
2023/07/17 06:00:00, 0.4,21.4
2023/07/17 06:10:00, 0.3,21.7
2023/07/17 06:20:00, 0.3,22.0
2023/07/17 06:30:00, 0.2,22.3
2023/07/17 06:40:00, 0.1,23.2
2023/07/17 06:50:00, 0.1,23.5
2023/07/17 07:00:00, 0.0,23.6
2023/07/17 07:10:00, 0.0,25.8
2023/07/17 07:20:00, 0.0,24.9
2023/07/17 07:30:00, 0.0,26.0
2023/07/17 07:40:00, 0.0,26.4
2023/07/17 07:50:00, 0.0,27.2
2023/07/17 08:00:00, 0.0,27.4
2023/07/17 08:10:00, 0.0,28.7
2023/07/17 08:20:00, 0.0,28.2
2023/07/17 08:30:00, 0.1,28.0
2023/07/17 08:40:00, 0.0,28.2
2023/07/17 08:50:00, 0.0,28.5
2023/07/17 09:00:00, 0.0,28.2
2023/07/17 09:10:00, 0.1,29.3
2023/07/17 09:20:00, 0.3,29.4
2023/07/17 09:30:00, 0.4,28.6
2023/07/17 09:40:00, 0.4,28.9
2023/07/17 09:50:00, 0.4,30.7
2023/07/17 10:00:00, 0.4,30.0
2023/07/17 10:10:00, 0.4,29.7
2023/07/17 10:20:00, 0.3,30.4
2023/07/17 10:30:00, 0.2,31.1
2023/07/17 10:40:00, 0.0,31.4
2023/07/17 10:50:00, 0.0,31.5
2023/07/17 11:00:00, 0.1,31.5
2023/07/17 11:10:00, 0.0,31.2
2023/07/17 11:20:00, 0.0,30.6
2023/07/17 11:30:00, 0.0,30.5
2023/07/17 11:40:00, 0.0,31.0
2023/07/17 11:50:00, 0.0,31.1
2023/07/17 12:00:00, 0.0,31.1
2023/07/17 12:10:00, 0.0,30.6
2023/07/17 12:20:00, 0.0,31.0
2023/07/17 12:30:00, 0.2,30.6
2023/07/17 12:40:00, 0.0,32.3
2023/07/17 12:50:00, 0.0,32.8
2023/07/17 13:00:00, 0.0,31.8
2023/07/17 13:10:00, 0.0,33.1
2023/07/17 13:20:00, 0.0,32.8
2023/07/17 13:30:00, 0.0,33.1
2023/07/17 13:40:00, 0.0,33.9
2023/07/17 13:50:00, 0.0,34.6
2023/07/17 14:00:00, 0.0,34.3
2023/07/17 14:10:00, 0.0,34.3
2023/07/17 14:20:00, 0.0,34.6
2023/07/17 14:30:00, 0.0,34.3
2023/07/17 14:40:00, 0.0,35.0
2023/07/17 14:50:00, 0.0,35.1
2023/07/17 15:00:00, 0.0,35.5
2023/07/17 15:10:00, 0.0,36.4
2023/07/17 15:20:00, 0.0,36.2
2023/07/17 15:30:00, 0.0,36.1
2023/07/17 15:40:00, 0.0,35.6
2023/07/17 15:50:00, 0.0,36.0
2023/07/17 16:00:00, 0.1,34.0
2023/07/17 16:10:00, 0.1,35.6
2023/07/17 16:20:00, 0.1,36.0
2023/07/17 16:30:00, 0.1,36.3
2023/07/17 16:40:00, 0.1,36.7
2023/07/17 16:50:00, 0.2,37.1
2023/07/17 17:00:00, 0.1,35.7
2023/07/17 17:10:00, 0.1,35.6
2023/07/17 17:20:00, 0.3,35.5
2023/07/17 17:30:00, 0.3,34.4
2023/07/17 17:40:00, 0.4,33.3
2023/07/17 17:50:00, 0.4,32.2
2023/07/17 18:00:00, 0.5,29.6
2023/07/17 18:10:00, 0.4,27.9
2023/07/17 18:20:00, 0.5,27.5
2023/07/17 18:30:00, 0.6,27.1
2023/07/17 18:40:00, 0.6,26.5
2023/07/17 18:50:00, 0.6,25.6
2023/07/17 19:00:00, 0.7,25.3
2023/07/17 19:10:00, 0.8,24.0
2023/07/17 19:20:00, 0.8,23.6
2023/07/17 19:30:00, 0.8,23.2
2023/07/17 19:40:00, 0.7,23.1
2023/07/17 19:50:00, 0.6,23.1
2023/07/17 20:00:00, 0.6,22.6
2023/07/17 20:10:00, 0.7,22.8
2023/07/17 20:20:00, 0.7,22.6
2023/07/17 20:30:00, 0.8,22.9
2023/07/17 20:40:00, 0.7,22.6
2023/07/17 20:50:00, 0.6,23.0
2023/07/17 21:00:00, 0.6,22.9
2023/07/17 21:10:00, 0.6,22.9
2023/07/17 21:20:00, 0.6,23.0
2023/07/17 21:30:00, 0.6,22.6
2023/07/17 21:40:00, 0.6,23.0
2023/07/17 21:50:00, 0.6,22.7
2023/07/17 22:00:00, 0.6,22.8
2023/07/17 22:10:00, 0.5,22.6
2023/07/17 22:20:00, 0.6,22.2
2023/07/17 22:30:00, 0.6,22.2
2023/07/17 22:40:00, 0.6,21.7
2023/07/17 22:50:00, 0.6,21.9
2023/07/17 23:00:00, 0.6,21.6
2023/07/17 23:10:00, 0.7,21.8
2023/07/17 23:20:00, 0.7,21.8
2023/07/17 23:30:00, 0.7,21.7
2023/07/17 23:40:00, 0.6,21.8
2023/07/17 23:50:00, 0.6,21.8
